Miscellaneous Local Product
Issued by NWS North Platte, NE

Home | Current Version | Previous Version | Graphics & Text | Print | Product List | Glossary On
Versions: 1 2 3 4 5 6 7 8 9 10 11 12 13 14 15 16 17 18 19 20 21 22 23 24 25 26 27 28 29 30 31 32 33 34 35 36 37 38 39 40 41 42 43 44 45 46 47 48 49 50
000
AXUS43 KLBF 301310
MISLBF


WESTERN AND NORTH CENTRAL NEBRASKA HOURLY WEATHER ROUNDUP
NATIONAL WEATHER SERVICE NORTH PLATTE NE
800 AM CDT THU JUL 30 2015

***STATIONS NOT REPORTING VARIABLES SUCH AS SKY/WEATHER OR
PRESSURE ARE PROVIDED BY THE NEBRASKA DEPARTMENT OF
ROADS...RAWS...AND APRS NETWORKS...AND ARE NOT UNDER
NATIONAL WEATHER SERVICE QUALITY CONTROL***

...OBSERVATIONS IN AND NEAR THE EASTERN PANHANDLE OF NEBRASKA...

CITY           SKY/WX    TMP DP  RH WIND       PRES   REMARKS
PINE RIDGE     SUNNY     57  50  77 CALM      30.25R
CHADRON        SUNNY     55  50  83 SW6       30.26R
ALLIANCE       MOSUNNY   59  52  77 NE3       30.28R
SIDNEY         SUNNY     63  59  87 S10       30.29S
BIG SPRINGS      N/A     62  56  81 CALM        N/A
$$

...OBSERVATIONS IN NORTH CENTRAL NEBRASKA...

CITY           SKY/WX    TMP DP  RH WIND       PRES   REMARKS
VALENTINE      SUNNY     61  53  75 SW6       30.22R
THEDFORD       SUNNY     65  56  70 SW5       30.25S
AINSWORTH      MOSUNNY   63  56  80 SW6       30.23S
O`NEILL        MOSUNNY   64  58  79 W7        30.22S
ORD            SUNNY     63  57  81 NW3       30.21R
BROKEN BOW     SUNNY     65  57  75 W3        30.24R
SPRINGVIEW       N/A     62  56  82 CALM        N/A
CHAMBERS         N/A     69  55  60 CALM        N/A
EWING            N/A     64  59  85 CALM        N/A
$$

...OBSERVATIONS IN SOUTHWEST NEBRASKA AND FAR NORTHEAST COLORADO...

CITY           SKY/WX    TMP DP  RH WIND       PRES   REMARKS
WRAY           FAIR      63  59  87 S3        30.29R
HOLYOKE        FAIR      59  55  88 S5        30.28S
IMPERIAL       SUNNY     59  53  80 SW3       30.27S
OGALLALA       SUNNY     58  54  86 CALM      30.27S
NORTH PLATTE   SUNNY     62  56  80 CALM      30.26S
MCCOOK         SUNNY     60  55  83 CALM      30.26R
LEXINGTON      SUNNY     60  58  92 CALM      30.25S
PAXTON           N/A     58  54  88 CALM        N/A
BRADY            N/A     59  54  84 CALM        N/A
CALLAWAY         N/A     64  59  84 SW8         N/A
$$

...NORTH PLATTE AREA...

CITY           SKY/WX    TMP DP  RH WIND       PRES   REMARKS
AIRPORT        SUNNY     62  56  80 CALM      30.26S
DOWNTOWN         N/A     66  56  70 CALM        N/A
SANDRIDGE        N/A     62  54  74 CALM        N/A
HILLCREST        N/A     63  55  75 CALM        N/A
$$

...SOME WEATHER OBSERVATIONS FROM AROUND THE REGION...

CITY           SKY/WX    TMP DP  RH WIND       PRES   REMARKS
DENVER         MOSUNNY   63  50  62 W10       30.34R
LARAMIE        SUNNY     46  37  71 S3        30.47R
CHEYENNE       SUNNY     58  45  62 W12       30.38R
SCOTTSBLUFF    SUNNY     60  52  74 NE5       30.27R
RAPID CITY     SUNNY     61  46  57 NW8       30.24S
PIERRE         SUNNY     62  52  69 CALM      30.14R
WINNER         FAIR      67  53  61 W5        30.19R
SIOUX FALLS    SUNNY     66  57  72 SW3       30.13S
OMAHA          SUNNY     68  62  81 CALM      30.19R
GRAND ISLAND   SUNNY     67  59  75 SW6       30.23S
KANSAS CITY    MOSUNNY   72  67  84 CALM      30.21R
WICHITA        TSTM      70  68  93 NE10      30.21R FOG
HAYS           MOSUNNY   70  57  64 NE6       30.25R
LIBERAL        CLOUDY    72  64  78 N5        30.25R
GOODLAND       SUNNY     65  60  84 S7        30.29R
$$



USA.gov is the U.S. government's official web portal to all federal, state and local government web resources and services.